STARLINK-2148

decayed
NORAD ID: 47737 Int'l Des: 2021-017 Owner: SPXS Country: US Constellation: starlink
LEOCIRCULAR
グループ

STARLINK-2148について

説明を読み込み中...

高度履歴

Altitude vs Time

uPlot chart will show altitude changes over time

軌道要素

1 47737U 21017R 24208.74997362 .24170965 12292-4 26648-2 0 9994
2 47737 53.0201 64.1644 0012100 279.4135 165.7093 16.36173982191986
Epoch: Jul 26, 2024 • Age: 9979 hours

現在のステータス

Position data unavailable
打ち上げ日 Mar 4, 2021
運用期間 4.5 years
落下予定日 Jul 26, 2024
タイプ internet

技術仕様

分類 Payload
質量 260.00 kg
乾燥質量 248.00 kg
総質量 260.00 kg
長さ 0.20 m
直径 2.80 m
スパン 9.00 m
形状 Box + pan
製造者 SPXS
バスタイプ Starlink
フェーズステータス Reentered
所有者/国 SPXS/US

大規模コンステレーション

Loading constellations...